Location: Caltech
(34.1382°N, 118.1253°W)
Time: 14:03:30
(UTC-08:00)

Iridium 62 - Visible Passes

Search period start: 10 February 2016 00:00
Search period end: 20 February 2016 00:00
Orbit: 776 x 779 km, 86.4° (Epoch: 10 February)

Date Brightness Start Highest point End Pass type
(mag) Time Alt. Az. Time Alt. Az. Time Alt. Az.
10 Feb 5.9 19:20:32 10° S 19:25:44 76° W 19:30:58 10° N visible
11 Feb 8.4 05:55:13 10° NNE 05:59:23 24° E 06:03:31 10° SE visible
11 Feb 5.8 18:47:12 10° SSE 18:52:16 55° E 18:57:21 10° NNE visible
11 Feb 8.7 20:30:48 10° WSW 20:33:18 13° WNW 20:35:49 10° NW visible
12 Feb 9.0 05:23:34 10° NE 05:25:34 12° ENE 05:27:35 10° E visible
12 Feb 6.6 18:14:30 10° SE 18:18:54 28° E 18:23:19 10° NNE visible
12 Feb 7.9 19:55:12 10° SW 19:59:31 26° W 20:03:50 10° NNW visible
13 Feb 6.7 19:20:49 10° SSW 19:25:52 50° W 19:30:56 10° N visible
14 Feb 7.7 05:54:50 10° NNE 05:59:35 35° E 06:04:19 10° SSE visible
14 Feb 5.7 18:47:07 10° S 18:52:19 83° E 18:57:33 10° N visible
15 Feb 8.7 05:22:17 10° NE 05:25:51 18° E 05:29:25 10° ESE visible
15 Feb 6.2 18:14:01 10° SSE 18:18:53 42° E 18:23:47 10° NNE visible
15 Feb 8.5 19:56:19 10° WSW 19:59:45 18° WNW 20:03:12 10° NW visible
16 Feb 7.5 19:21:21 10° SSW 19:26:01 33° W 19:30:43 10° NNW visible
17 Feb 6.8 05:54:39 10° N 05:59:45 52° E 06:04:49 10° SSE visible
17 Feb 6.2 18:47:15 10° S 18:52:24 66° W 18:57:36 10° N visible
18 Feb 8.1 05:21:41 10° NNE 05:26:05 27° E 05:30:28 10° SE visible
18 Feb 5.8 18:13:47 10° S 18:18:55 64° E 18:24:04 10° N visible
18 Feb 9.0 19:58:19 10° W 20:00:03 12° WNW 20:01:47 10° WNW visible
19 Feb 8.9 04:49:36 10° NE 04:52:19 14° ENE 04:55:00 10° ESE visible
19 Feb 8.3 19:22:11 10° SW 19:26:14 23° W 19:30:19 10° NNW visible
